Regional Weather Roundup
Issued by NWS

Home | Current Version | Previous Version | Text Only | Print | Product List | Glossary On
Versions: 1 2 3 4 5 6 7 8 9 10 11 12 13 14 15 16 17 18 19 20 21 22 23 24 25 26 27 28 29 30 31 32 33 34 35 36 37 38 39 40 41 42 43 44 45 46 47 48 49 50
000
ASUS45 KABQ 202110
RWRNM
NEW MEXICO REGIONAL WEATHER ROUNDUP
NATIONAL WEATHER SERVICE ALBUQUERQUE NM
200 PM MST SAT JAN 20 2018

NOTE: "FAIR" MEANS FEW OR NO CLOUDS BELOW 12,000 FEET AGL WITH NO
       SIGNIFICANT WEATHER OR OBSTRUCTIONS TO VISION.

      THIS PRODUCT IS RELEASED AS TWO VERSIONS.  ONE VERSION NEAR
      THE TOP OF THE HOUR CONTAINING PRELIMINARY DATA FROM ALBUQUERQUE
      AND OTHER STATIONS.  A FINAL VERSION WITH ADDITIONAL DATA IS
      ISSUED ABOUT 10 MINUTES AFTER THE HOUR.

NMZ501-503-504-510>518-202200-
NORTHWEST PLATEAU/NORTHCENTRAL MOUNTAINS

CITY           SKY/WX    TMP DP  RH WIND       PRES   REMARKS
FARMINGTON     CLOUDY    56  22  26 S21G38    29.73F
LOS ALAMOS     FAIR      50  12  21 S16       29.88F
SANTA FE       FAIR      55  13  18 SW12      29.86F
TAOS           FAIR      54  13  19 W14       29.89F
ANGEL FIRE     FAIR      49  13  23 W17G23    29.88F

$$
NMZ402-403-502-505>509-202200-
WESTCENTRAL MOUNTAINS/SOUTHWEST MOUNTAINS

CITY           SKY/WX    TMP DP  RH WIND       PRES   REMARKS
GALLUP         PTSUNNY   53  23  31 SW24G35   29.78F
GRANTS         FAIR      57  18  21 SW15G29   29.83F
SILVER CITY    FAIR      60  19  20 SW14      29.92F

$$
NMZ407-409-411-412-202200-
SOUTHERN DESERTS

CITY           SKY/WX    TMP DP  RH WIND       PRES   REMARKS
DEMING         FAIR      68  18  14 W17G25    29.88F
LAS CRUCES     FAIR      67  18  15 SW18      29.90F
HOLLOMAN AFB   FAIR      68  16  13 S12       29.90F
ALAMOGORDO     FAIR      66  16  14 S7        29.89F
T OR C         FAIR      68  17  14 S25G32    29.81F

$$
NMZ519>523-202200-
CENTRAL VALLEYS/CENTRAL HIGHLANDS

CITY           SKY/WX    TMP DP  RH WIND       PRES   REMARKS
ALBUQUERQUE    FAIR      56  17  21 S9        29.84F
DOUBLE EAGLE   PTSUNNY   54  18  24 SE10      29.86F
MORIARTY ARPT  FAIR      61  13  15 S18       29.87F
CLINES CORNERS FAIR      56  12  17 SW30G39   29.87F
BELEN          FAIR      60  14  16 S15       29.83F
SOCORRO        FAIR      64  15  15 S12       29.83F

$$
NMZ524>526-539-540-202200-
SOUTHCENTRAL MOUNTAINS

CITY           SKY/WX    TMP DP  RH WIND       PRES   REMARKS
RUIDOSO        FAIR      55  10  16 SW18G24   29.94F

$$
NMZ527>531-202200-
NORTHEAST HIGHLANDS/NORTHEAST PLAINS

CITY           SKY/WX    TMP DP  RH WIND       PRES   REMARKS
LAS VEGAS      FAIR      56  13  18 SW30G40   29.82F
RATON          FAIR      64  15  15 S15       29.75F
CLAYTON        FAIR      69  16  13 S18       29.71F

$$
NMZ532>537-202200-
EASTCENTRAL PLAINS

CITY           SKY/WX    TMP DP  RH WIND       PRES   REMARKS
TUCUMCARI      FAIR      74  14  10 SW18      29.73F
CANNON AFB     FAIR      70  15  12 W16       29.81F
CLOVIS AIRPORT FAIR      70  17  13 SW16      29.80F

$$
NMZ028-029-538-202200-
SOUTHEAST PLAINS

CITY           SKY/WX    TMP DP  RH WIND       PRES   REMARKS
ROSWELL        FAIR      74  17  11 SE10      29.78F
ARTESIA        FAIR      73  18  12 SW24      29.80F
CARLSBAD       FAIR      74  19  12 W24G31    29.82F
HOBBS          SUNNY     73  10   9 W24G31    29.85F


$$



USA.gov is the U.S. government's official web portal to all federal, state and local government web resources and services.